This is the latest recevied weather packets stored in our database for station/object EA1IOK-1. If no packets are shown the sender has not sent any weather packets the latest 10 day(s).
| Time | Temp. | Humidity | Pressure | Rain* | Wind** | Luminosity | Snow |
|---|---|---|---|---|---|---|---|
| 1777460660 | 15° C | 100% | 1005.9 hPa | - | - | - | - |
| 1777459760 | 16.67° C | 100% | 1006 hPa | - | - | - | - |
| 1777458860 | 15.56° C | 100% | 1005.9 hPa | - | - | - | - |
| 1777457960 | 15° C | 100% | 1006 hPa | - | - | - | - |
| 1777457059 | 15° C | 100% | 1005.9 hPa | - | - | - | - |
| 1777456159 | 15° C | 100% | 1005.9 hPa | - | - | - | - |
| 1777455259 | 15° C | 100% | 1006 hPa | - | - | - | - |
| 1777454359 | 15° C | 100% | 1006 hPa | - | - | - | - |
| 1777453459 | 15.56° C | 100% | 1006.1 hPa | - | - | - | - |
| 1777452558 | 16.11° C | 100% | 1006 hPa | - | - | - | - |
| 1777451658 | 15.56° C | 100% | 1006 hPa | - | - | - | - |
| 1777450758 | 14.44° C | 100% | 1006.2 hPa | - | - | - | - |
| 1777449858 | 13.89° C | 100% | 1006.2 hPa | - | - | - | - |
| 1777448958 | 13.89° C | 100% | 1006 hPa | - | - | - | - |
| 1777448058 | 13.33° C | 100% | 1006.2 hPa | - | - | - | - |
| 1777447157 | 13.89° C | 100% | 1006.1 hPa | - | - | - | - |
| 1777446258 | 12.78° C | 100% | 1005.9 hPa | - | - | - | - |
| 1777445357 | 12.22° C | 100% | 1005.7 hPa | - | - | - | - |
| 1777444457 | 12.22° C | 100% | 1005.7 hPa | - | - | - | - |
| 1777443557 | 11.67° C | 100% | 1005.6 hPa | - | - | - | - |
| 1777442657 | 11.11° C | 100% | 1005.5 hPa | - | - | - | - |
| 1777441757 | 11.11° C | 100% | 1005.3 hPa | - | - | - | - |
| 1777440856 | 11.11° C | 100% | 1005.2 hPa | - | - | - | - |
| 1777439956 | 11.11° C | 100% | 1005.4 hPa | - | - | - | - |
| 1777439056 | 11.11° C | 100% | 1005.5 hPa | - | - | - | - |
* Rain since midnight (hover to see other rain measurements)
** Current wind speed in m/s (hover to see current wind gust speed)